EW1210 Westbrook CT US current weather conditions

sailwx.info

Wind from 240

Air temperature 31.7° C
Dewpoint 21.5° C

Last reported at 2020-Jul-06 15:46 UTC.
Time now 2020-Jul-06 16:30 UTC

Location: N 41°18' W 072°27'.
View on Google Maps.

See reports from other nearby stations

  
Tides and Currents Weather Stations Pressure Air Temp Water Temp Dewpoint Dewpoint Depression Visibility Wind Speed Wind Dir Waves Ship Positions
date/time (UTC)wind fromknots sea level pressurealtimeterstation pressurevisibilityair tempwater tempwave heightnotes
2020-Jul-06 16:00 095 32.2
2020-Jul-06 15:46 240 31.7
2020-Jul-06 15:30 162 31.7
2020-Jul-06 15:15 162 31.1
2020-Jul-06 15:00 210 30.6
2020-Jul-06 14:45 295 29.4
2020-Jul-06 14:30 280 29.4
2020-Jul-06 14:15 029 29.4
2020-Jul-06 14:00 001 28.3
2020-Jul-06 13:45 336 27.8
2020-Jul-06 13:30 026 27.2
2020-Jul-06 13:15 301 26.1
2020-Jul-06 13:01 300 25.0
2020-Jul-06 12:46 044 23.3
2020-Jul-06 12:31 044 21.7
2020-Jul-06 12:16 044 21.1
2020-Jul-06 12:01 044 21.1
2020-Jul-06 11:46 044 20.6
2020-Jul-06 11:30 044 20.6
2020-Jul-06 11:16 044 20.0
2020-Jul-06 11:01 044 20.0
2020-Jul-06 10:45 044 20.0
2020-Jul-06 10:31 044 19.4
2020-Jul-06 10:15 044 20.0
2020-Jul-06 10:01 044 20.0
2020-Jul-06 09:46 044 20.0
2020-Jul-06 09:30 044 20.0
2020-Jul-06 09:15 044 20.0
2020-Jul-06 09:00 044 20.0
2020-Jul-06 08:46 044 20.6
2020-Jul-06 08:30 044 20.6
2020-Jul-06 08:15 044 20.6
2020-Jul-06 08:00 044 21.1
2020-Jul-06 07:46 044 20.6
2020-Jul-06 07:30 044 20.6
2020-Jul-06 07:16 044 20.6
2020-Jul-06 07:00 044 20.6
2020-Jul-06 06:45 044 21.1
2020-Jul-06 06:30 044 21.1
2020-Jul-06 06:15 044 21.1
2020-Jul-06 06:00 044 21.1
2020-Jul-06 05:45 044 21.1
2020-Jul-06 05:30 044 21.1
2020-Jul-06 05:15 044 21.7
2020-Jul-06 05:00 044 21.7
2020-Jul-06 04:45 044 21.7
2020-Jul-06 04:30 044 21.7
2020-Jul-06 04:15 044 21.7
2020-Jul-06 04:00 044 21.7
2020-Jul-06 03:45 044 22.2
2020-Jul-06 03:30 044 22.2
2020-Jul-06 03:15 247 22.2
2020-Jul-06 03:00 246 22.2
2020-Jul-06 02:45 246 22.2
2020-Jul-06 02:30 247 22.2
2020-Jul-06 02:17 246 22.8
2020-Jul-06 02:03 246 22.8
2020-Jul-06 01:46 246 23.3
2020-Jul-06 01:31 246 23.3
2020-Jul-06 01:16 238 23.3
2020-Jul-06 01:01 236 23.9
2020-Jul-06 00:46 242 23.9
2020-Jul-06 00:31 242 24.4
2020-Jul-06 00:16 184 24.4
2020-Jul-06 00:02 225 25.0
2020-Jul-05 23:45 190 25.0
2020-Jul-05 23:32 228 25.6
2020-Jul-05 23:16 246 25.6
2020-Jul-05 23:01 247 25.6
2020-Jul-05 22:46 239 26.1
2020-Jul-05 22:32 236 26.7
2020-Jul-05 22:17 229 27.2
2020-Jul-05 22:01 214 27.8
2020-Jul-05 21:47 304 28.9
2020-Jul-05 21:32 224 0 gusting 2 29.4
2020-Jul-05 21:16 255 0 gusting 4 28.9
2020-Jul-05 21:01 211 0 gusting 5 28.9
2020-Jul-05 20:46 290 1 gusting 4 28.3
2020-Jul-05 20:31 228 0 gusting 4 28.3
2020-Jul-05 20:16 163 0 gusting 4 28.3
2020-Jul-05 20:00 217 1 gusting 6 28.3
2020-Jul-05 19:46 220 0 gusting 6 28.3
2020-Jul-05 19:31 224 0 gusting 3 28.9
2020-Jul-05 19:16 298 0 gusting 2 28.3
2020-Jul-05 19:01 194 0 gusting 4 27.8
2020-Jul-05 18:46 195 0 gusting 4 27.8
2020-Jul-05 18:30 214 1 gusting 6 27.8
2020-Jul-05 18:15 217 0 gusting 5 27.2
2020-Jul-05 18:00 225 0 gusting 4 27.8
2020-Jul-05 17:45 201 0 gusting 5 27.2
2020-Jul-05 17:30 193 1 gusting 6 26.7
2020-Jul-05 17:15 218 1 gusting 4 27.2
2020-Jul-05 17:01 212 1 gusting 4 26.7
2020-Jul-05 16:45 188 0 gusting 4 27.2
2020-Jul-05 16:30 153 0 gusting 4 27.2
2020-Jul-05 16:15 154 1 gusting 5 26.7
2020-Jul-05 16:00 253 1 gusting 4 26.1
2020-Jul-05 15:45 156 1 gusting 5 26.7
2020-Jul-05 15:30 140 0 gusting 4 26.1
2020-Jul-05 15:15 201 1 gusting 4 26.1
2020-Jul-05 15:01 278 26.1
2020-Jul-05 14:46 284 25.6
2020-Jul-05 14:30 222 24.4
2020-Jul-05 14:17 177 0 gusting 3 23.3
2020-Jul-05 14:01 211 0 gusting 5 22.8
2020-Jul-05 13:47 239 0 gusting 3 22.8
2020-Jul-05 13:32 214 22.8
2020-Jul-05 13:16 167 22.8
2020-Jul-05 13:01 153 0 gusting 3 22.8
2020-Jul-05 12:46 150 22.8
2020-Jul-05 12:31 215 22.2
2020-Jul-05 12:17 158 22.2
2020-Jul-05 12:01 255 0 gusting 3 21.7
2020-Jul-05 11:45 259 0 gusting 3 21.7
2020-Jul-05 11:31 274 21.1
2020-Jul-05 11:16 210 21.1
2020-Jul-05 11:00 169 20.6
2020-Jul-05 10:47
2020-Jul-05 10:30
2020-Jul-05 10:16 245 20.6
2020-Jul-05 10:01 210 20.0
2020-Jul-05 09:45 219 20.0
2020-Jul-05 09:30 225 20.0
2020-Jul-05 09:16 200 20.0
2020-Jul-05 09:00 210 20.0
2020-Jul-05 08:45 217 20.0
2020-Jul-05 08:30 214 20.0
2020-Jul-05 08:15 210 19.4
2020-Jul-05 08:01 191 19.4
2020-Jul-05 07:46 288 19.4
2020-Jul-05 07:31 283 19.4
2020-Jul-05 07:15 217 19.4
2020-Jul-05 07:00 200 19.4
2020-Jul-05 06:45 200 19.4
2020-Jul-05 06:30 177 19.4
2020-Jul-05 06:15 177 18.9
2020-Jul-05 06:00 177 18.9
2020-Jul-05 05:45 177 18.9
2020-Jul-05 05:30 177 18.9
2020-Jul-05 05:15 177 18.9
2020-Jul-05 05:00 177 18.9
2020-Jul-05 04:45 177 19.4
2020-Jul-05 04:30 177 19.4
2020-Jul-05 04:15 158 19.4
2020-Jul-05 04:00 158 18.9
2020-Jul-05 03:45 158 18.9
2020-Jul-05 03:30 158 18.9
2020-Jul-05 03:15 158 18.9
2020-Jul-05 03:01 158 18.9
2020-Jul-05 02:46 158 18.9
2020-Jul-05 02:32 158 19.4
2020-Jul-05 02:17 158 19.4
2020-Jul-05 02:02 158 19.4
2020-Jul-05 01:46 158 19.4
2020-Jul-05 01:31 158 20.0
2020-Jul-05 01:01 158 20.6
2020-Jul-05 00:46 155 20.6
2020-Jul-05 00:31 155 21.1
2020-Jul-05 00:16 162 21.1
2020-Jul-05 00:01 230 21.7
2020-Jul-04 23:47 235 22.2
2020-Jul-04 23:31 234 22.2
2020-Jul-04 23:18 162 22.8
2020-Jul-04 23:01 200 22.8
2020-Jul-04 22:45 267 23.3
2020-Jul-04 22:31 146 23.9
2020-Jul-04 22:16 155 23.9
2020-Jul-04 22:02 274 24.4
2020-Jul-04 21:46 229 0 gusting 3 25.0
2020-Jul-04 21:31 204 0 gusting 2 26.7
2020-Jul-04 21:16 193 26.1
2020-Jul-04 21:01 160 26.1
2020-Jul-04 20:46 191 26.1
2020-Jul-04 20:31 194 25.6
2020-Jul-04 20:18 125 25.6
2020-Jul-04 20:02 234 0 gusting 3 25.6
2020-Jul-04 19:47 245 0 gusting 4 25.6
2020-Jul-04 19:31 232 0 gusting 4 26.1
2020-Jul-04 19:16 207 0 gusting 3 26.1
2020-Jul-04 19:02 214 0 gusting 4 25.6
2020-Jul-04 18:45 167 0 gusting 2 26.1
2020-Jul-04 18:31 143 26.7
2020-Jul-04 18:15 225 0 gusting 2 26.1
2020-Jul-04 18:01 287 0 gusting 3 25.6
2020-Jul-04 17:46 210 26.1
2020-Jul-04 17:31 224 0 gusting 2 25.6
2020-Jul-04 17:16 285 25.6
2020-Jul-04 17:01 211 0 gusting 3 26.1
2020-Jul-04 16:45 324 26.7
2020-Jul-04 16:30 325 0 gusting 1 26.7
2020-Jul-04 16:16 065 26.1
2020-Jul-04 16:00 057 0 gusting 2 25.6